User: anonymous   Login
Location: ?????
(30.2541°N, 31.0910°E)
Time: 08:13:47
(UTC+00:00)
Language:

IRIDIUM 33 DEB - Orbit

View from above orbital plane
View from above orbital plane
View from above satellite
View from above satellite

Ground track
Ground track

The orbit data is extracted from the following two-line orbital elements,

1 33886U 97051BF  24141.56476222  .00001679  00000-0  58562-3 0  9998
2 33886  86.3802 307.2973 0012766 320.7553 110.2024 14.34738287798589
Epoch (UTC): 20 May 2024 13:33:15
Eccentricity: 0.0012766
inclination: 86.3802°
perigee height: 767 km
apogee height: 785 km
right ascension of ascending node: 307.2973°
argument of perigee: 320.7553°
revolutions per day: 14.34738287
mean anomaly at epoch: 110.2024°
orbit number at epoch: 79858

The dashed part of the orbit path shows where the satellite is in the earth's shadow,  

DLR